Погода в Ухолово

Россия / Рязанская область     53°47′34″N   40°29′18″E
темп.,
°C
ветер,
м/с
пор.,
м/с
влажн.,
%
обл.,
%
осадки,
мм/ч
давл.,
гПа
погр.,
м
28 июня, вт
вт2800:00+20с34855 1.5 101745
03:00+18с35900 1.5 101785
06:00+19ссз36890 0.0 1017167
09:00+23ссв57750 0.0 1017580
12:00+24ссв78645 0.0 10181180
15:00+23ссв68513 0.0 10191338
18:00+21св47590 0.0 1019518
21:00+16всв35735 0.0 102063
29 июня, ср
ср2900:00+13в34700 0.0 102256
03:00+11всв22770 0.0 102321
06:00+13св24750 0.0 1023121
09:00+17ссв34580 0.0 1023637
12:00+20св33493 0.0 10221763
15:00+21св334537 0.0 10211972
18:00+20с33561 0.0 10201073
21:00+15с22650 0.0 102011
30 июня, чт
чт3000:00+13с11660 0.0 102010
03:00+12зсз227471 0.0 102020
06:00+13сз35792 0.0 1020146
09:00+18ссз566292 0.0 1019646
12:00+20ссз465084 0.0 10191567
15:00+22ссз574414 0.0 10181986
18:00+20сз58605 0.0 1017409
21:00+16зсз4780100 0.0 1017104
1 июля, пт
пт100:00+15ссз397186 0.0 1017195
03:00+12с36800 0.0 101893
06:00+14ссв36810 0.0 1019167
09:00+18св46610 0.0 1020627
12:00+21ссв45465 0.0 10201780
15:00+22с464621 0.0 10201822
18:00+22св13495 0.0 1019857
21:00+16юв22645 0.0 102012
2 июля, сб
сб200:00+14ю33710 0.0 102024
03:00+13ююз22805 0.0 102015
06:00+15зсз227926 0.0 102075
09:00+21ссз23575 0.0 1020427
12:00+24сз2345100 0.0 10191126
15:00+25зсз344898 0.0 10181424
18:00+24з3563100 0.0 1017284
21:00+20з487681 0.0 1017137